CYAT

Attawapiskat Airport

Airport
ICAO code
CYAT
IATA Code
YAT
Summary
ICAO Region
NAM
ICAO Territory
Location

Attawapiskat, Ontario

Serving
Attawapiskat First Nation
Elevation
30 ft
Coordinates
52° 55' 36" N , 82° 25' 50" W
KCC
Metar
CYAT 181206Z AUTO 34004KT 290V010 9SM FEW005 SCT012 OVC060 06/05 A2983 RMK SLP102

Description

Regional airport adjacent to the Attawapiskat First Nation, Ontario, Canada.

Climatology

Subarctic climate (Köppen climate classification Dfc) - long, usually very cold winters, and short, cool to mild summers.

Runways

Designator Length Width Surface Rops
6/24 1067 30 GRVL No/No

Airport map

Aerial View

SKYbrary Partners:

Safety knowledge contributed by: